Probability
0 0 0 0 0 0 0 0 0 0 0 0 0 0 0 0 0 0 0 0 0 0 0 0 0 0 0 0 0 0 0 0 0 0 0 0 0 0 0 0 0 0 0 0
0 0 0 0 0 0 0 0 0 0 0 0 0 0 0 0 0 0 0 0 0 0 0 0 0 0 0 0 0 0 0 0 0 0 0 0 0 0 0 0 0 0 0 0
0 0 0 0 0 0 0 0 0 0 0 0 0 0 0 0 0 0 0 0 0 0 0 0 0 0 0 0 0 0 0 0 0 0 0 0 0 0 0 0 0 0 0 0
0 0 0 0 0 0 0 0 0 0 0 0 0 0 0 0 0 0 0 0 0 0 0 0 0 0 0 0 0 0 0 0 0 0 0 0 0 0 0 0 0 0 0 0
0 0 0 0 0 0 0 0 0 0 0 0 0 0 0 0 0 0 0 0 0 0 0 0 0 0 0 0 0 0 0 0 0 0 0 0 0 0 0 0 1 1 1 0
0 0 0 0 0 0 0 0 0 0 0 0 0 0 0 0 0 0 0 0 0 0 0 0 0 0 0 0 0 0 0 0 0 0 0 0 0 0 0 1 2 2 2 1
0 0 0 0 0 0 0 0 0 0 0 0 0 0 0 0 0 0 0 0 0 0 0 0 0 0 0 0 0 0 0 0 0 0 0 0 0 0 0 1 2 3 2 1
0 0 0 0 0 0 0 0 0 0 0 0 0 0 0 0 0 0 0 0 0 0 0 0 0 0 0 0 0 0 0 0 0 0 0 0 0 0 0 1 2 2 1 0
0 0 0 0 0 0 0 0 0 0 0 0 0 0 0 0 0 0 0 0 0 0 0 0 0 0 0 0 0 0 0 0 0 0 0 0 1 1 1 0 1 1 1 1
0 0 0 0 0 0 0 0 0 0 0 0 0 0 0 0 0 0 0 0 0 0 0 0 0 0 0 0 0 0 0 0 0 0 0 0 1 2 2 1 1 2 2 2
0 0 0 0 0 0 0 0 0 0 0 0 0 0 0 0 0 0 0 0 0 0 0 0 0 0 0 0 0 0 0 0 0 0 0 0 1 2 3 3 3 3 3 3
1 1 0 0 0 0 0 0 0 0 0 0 0 0 0 0 0 0 0 0 0 0 0 0 0 0 0 0 0 0 0 0 0 0 0 0 0 1 2 3 3 2 2 2
1 1 0 0 0 0 0 0 0 0 0 0 0 0 0 0 0 0 0 0 0 0 0 0 0 0 0 0 0 0 0 0 0 0 0 0 0 0 1 1 1 1 1 1
1 0 0 0 0 0 0 0 0 0 0 0 0 0 0 0 0 0 0 0 0 0 0 0 0 0 0 0 0 0 0 0 0 0 0 0 0 0 0 0 0 0 0 0
1 0 0 0 0 0 0 0 0 0 0 0 0 0 0 0 0 0 0 0 0 0 0 0 0 0 0 0 0 0 0 0 0 0 0 0 0 0 0 0 0 0 0 0
0 0 0 0 0 0 0 0 0 0 0 0 0 0 0 0 0 0 0 0 0 0 0 0 0 0 0 0 0 0 0 0 0 0 0 0 0 0 0 0 0 0 0 0
0 0 0 0 0 0 0 0 0 0 0 0 0 0 0 0 0 0 0 0 0 0 0 0 0 0 0 0 0 0 0 0 0 0 0 0 0 0 0 0 0 0 0 0
0 0 0 0 0 0 0 0 0 0 0 0 0 0 0 0 0 0 0 0 0 0 0 0 0 0 0 0 0 0 0 0 0 0 0 0 0 0 0 0 0 0 0 0
0 0 0 0 0 0 0 0 0 0 0 0 0 0 0 0 0 0 0 0 0 0 0 0 0 0 0 0 0 0 0 0 0 0 0 0 0 0 0 0 0 0 0 0
0 0 0 0 0 0 0 0 0 0 0 0 0 0 0 0 0 0 0 0 0 0 0 0 0 0 0 0 0 0 0 0 0 0 0 0 0 0 0 0 0 0 0 0
0 0 0 0 0 0 0 0 0 0 0 0 0 0 0 0 0 0 0 0 0 0 0 0 0 0 0 0 0 0 0 0 0 0 0 0 0 0 0 0 0 0 0 0
0 0 0 0 0 0 0 0 0 0 0 0 0 0 0 0 0 0 0 0 0 0 0 0 0 0 0 0 0 0 0 0 0 0 0 0 0 0 0 0 0 0 0 0
0 0 0 0 0 0 0 0 0 0 0 0 0 0 0 0 0 0 0 0 0 0 0 0 0 0 0 0 0 0 0 0 0 0 0 0 0 0 0 0 0 0 0 0
0 0 0 0 0 0 0 0 0 0 0 0 0 0 0 0 0 0 0 0 0 0 0 0 0 0 0 0 0 0 0 0 0 0 0 0 0 0 0 0 0 0 0 0
0 0 0 0 0 0 0 0 0 0 0 0 0 0 0 0 0 0 0 0 0 0 0 0 0 0 0 0 0 0 0 0 0 0 0 0 0 0 0 0 0 0 0 0
0 0 0 0 0 0 0 0 0 0 0 0 0 0 0 0 0 0 0 0 0 0 0 0 0 0 0 0 0 0 0 0 0 0 0 0 0 0 0 0 0 0 0 0
Wind_Speed
10 10 16 18 18 11 8 10 11 10 8 11 13 14 13 10 9 9 9 9 10 10 10 11 11 11 11 11 13 15 14 13 11 9 9 8 9 8 7 7 8 9 9 9
10 20 21 15 15 14 13 12 11 7 4 7 9 13 12 12 12 11 11 11 10 10 9 11 12 11 12 13 13 14 15 15 13 11 10 7 7 7 7 7 8 10 10 10
21 15 17 16 15 17 17 15 12 6 2 2 4 10 14 14 13 12 12 11 10 11 11 11 13 13 13 14 15 14 16 15 15 12 8 7 6 5 7 9 9 10 11 10
21 13 17 19 19 18 18 13 10 5 4 5 7 7 11 15 17 17 14 12 12 11 11 11 13 14 15 15 14 14 14 15 15 14 11 12 11 11 11 9 8 9 11 11
16 17 20 23 22 18 8 6 7 5 4 5 7 8 7 8 13 16 16 15 14 12 12 12 13 15 14 14 13 13 13 14 14 14 14 13 12 10 7 7 9 10 10 11
9 9 15 15 14 12 6 5 4 1 2 10 13 10 9 9 11 10 13 14 15 13 12 12 11 12 12 12 11 12 13 13 13 15 15 15 15 12 9 10 10 9 8 9
9 8 7 8 11 10 11 9 5 6 8 11 10 11 11 7 7 9 10 11 11 12 12 11 11 11 12 12 13 12 13 14 14 14 15 16 16 14 14 11 10 10 8 9
15 14 15 12 15 14 18 17 12 10 9 6 6 12 9 5 5 4 5 5 6 7 7 8 9 9 11 11 12 12 13 13 13 14 14 13 13 11 10 11 9 10 9 9
15 13 11 12 9 14 16 16 9 3 2 3 7 7 8 5 5 5 6 6 7 7 7 6 5 6 7 9 10 11 11 11 11 12 12 12 12 12 11 10 10 8 8 8
7 8 11 10 6 9 9 10 6 8 8 7 7 9 8 8 12 11 10 11 10 7 6 6 6 6 5 6 7 7 7 9 8 8 8 8 9 10 9 8 9 9 8 8
7 6 9 12 17 18 13 15 10 8 6 7 6 8 8 11 12 12 12 9 8 7 7 6 5 5 5 5 5 6 6 6 6 6 6 6 7 7 7 7 8 8 7 8
9 4 7 12 8 11 12 13 14 11 8 6 4 7 1 4 5 5 6 5 5 6 5 5 5 5 5 5 5 5 5 5 5 5 5 5 5 5 6 7 6 7 7 7
11 8 8 6 5 8 13 15 17 10 5 5 6 9 3 3 3 4 4 5 5 5 5 4 5 5 5 6 6 5 5 5 5 5 5 5 6 6 6 6 5 6 6 7
11 8 10 14 10 13 15 18 19 14 8 9 12 11 6 5 6 6 6 6 6 6 6 6 6 6 6 6 6 6 5 5 5 4 5 5 5 5 5 5 5 6 6 7
9 9 10 10 7 12 14 19 21 22 17 13 15 17 15 10 8 8 7 7 7 6 7 7 7 7 7 7 6 6 6 6 5 5 5 5 4 4 4 4 5 5 5 6
8 7 8 9 10 12 13 18 21 23 24 20 15 18 14 9 8 7 8 8 8 8 8 8 8 8 8 8 8 7 7 7 6 6 5 4 5 4 4 5 5 5 5 5
7 7 8 8 7 7 15 24 26 23 23 23 24 24 9 8 11 11 10 10 10 10 9 9 9 9 9 8 9 9 8 7 6 6 5 5 5 6 5 6 6 6 6 6
8 6 4 4 7 15 14 14 17 22 24 23 23 17 13 13 10 9 9 10 10 9 9 8 7 7 7 7 7 7 7 7 7 6 6 6 6 6 6 6 6 6 5 6
11 8 5 6 9 9 8 14 23 24 24 23 24 20 14 9 6 10 9 9 9 9 7 6 6 6 6 7 8 8 7 7 7 7 6 6 7 7 6 6 6 5 5 5
12 10 7 6 8 13 14 11 12 12 19 19 22 21 15 9 12 15 8 8 7 5 4 4 4 5 6 6 8 9 8 8 8 7 7 6 7 7 7 7 6 5 5 6
13 11 13 10 10 11 9 10 15 16 20 14 17 17 14 17 18 9 6 6 5 5 4 5 5 5 4 5 8 8 7 7 5 6 6 6 6 6 7 6 5 6 6 7
14 12 13 11 11 14 8 12 17 14 6 6 11 13 14 15 12 6 6 6 6 5 4 5 5 4 3 5 7 7 6 4 6 7 7 7 6 5 6 7 7 6 7 8
13 13 9 12 12 6 8 10 8 5 6 7 8 8 10 9 8 6 6 6 6 6 5 5 6 6 5 4 5 7 5 6 7 8 7 7 7 6 6 7 8 7 6 6
7 7 6 7 9 8 7 4 3 2 3 3 4 5 6 7 7 6 6 6 6 5 5 6 7 7 5 4 5 5 5 7 8 8 7 7 7 6 6 5 5 5 6 6
8 8 8 9 6 4 7 8 7 3 2 2 1 2 4 6 6 6 6 6 6 6 5 6 7 7 6 6 6 5 5 7 8 8 7 6 6 6 6 5 4 4 3 4
5 7 11 11 9 9 10 9 7 6 5 5 4 2 2 5 7 7 6 6 6 7 7 7 7 8 7 7 6 5 4 5 7 7 6 5 5 5 5 5 5 6 5 6
Wind_Direction
169 183 200 204 211 230 228 219 223 226 202 198 220 234 236 233 226 226 228 222 210 206 197 187 185 180 179 181 181 181 182 184 181 182 185 186 192 193 197 198 195 195 192 191
173 212 208 201 207 226 240 243 238 240 201 205 233 243 240 233 227 220 220 222 217 208 197 187 182 180 184 187 187 186 186 187 188 189 188 188 183 193 198 197 196 196 196 195
202 207 198 202 205 214 226 232 234 230 184 239 276 264 242 239 235 228 220 218 217 209 201 190 185 187 189 193 193 193 191 189 190 186 180 182 188 186 193 201 201 199 197 197
214 211 194 201 207 206 224 222 234 229 194 223 203 259 235 223 224 224 221 218 219 215 207 194 188 190 193 198 195 195 193 191 190 186 187 187 194 200 199 195 196 195 197 198
205 199 197 203 205 199 212 197 218 219 228 258 227 251 258 225 223 219 213 212 216 216 211 203 194 194 196 194 193 195 195 195 192 190 193 196 203 206 198 190 191 194 197 199
213 199 202 208 203 189 149 102 58 47 218 240 225 234 259 217 221 214 208 208 211 213 214 211 200 189 191 188 188 191 195 199 196 194 195 200 205 203 199 197 195 195 194 200
201 210 204 182 173 166 157 149 166 195 213 233 203 220 247 220 218 209 209 209 206 205 207 208 199 190 187 185 187 190 195 201 199 199 201 204 206 205 207 203 198 193 195 200
189 199 196 189 184 178 185 184 187 192 204 222 194 223 244 227 212 213 217 212 208 208 206 205 199 189 185 184 185 189 196 203 200 201 205 206 206 207 210 208 201 198 199 199
196 205 182 195 178 168 182 205 215 195 159 207 221 236 249 219 217 227 235 236 231 222 210 204 199 190 184 183 186 190 197 204 205 204 204 206 206 207 209 206 202 198 195 188
201 196 178 179 172 199 187 179 186 192 182 213 231 223 223 194 211 220 225 227 226 212 198 195 193 193 187 181 183 186 195 203 208 206 204 206 209 209 207 202 203 198 192 184
223 195 171 172 192 187 181 189 190 188 199 190 219 239 209 194 198 206 215 214 201 194 190 190 188 181 166 160 169 181 190 196 202 205 204 202 207 205 203 203 201 193 188 183
191 181 191 198 202 200 198 196 192 190 205 210 208 252 207 157 172 182 192 181 170 172 174 174 171 167 167 173 178 183 186 191 194 194 195 198 201 199 198 199 194 185 183 179
168 176 165 177 207 208 210 206 207 210 185 198 207 248 208 160 177 186 183 177 174 178 178 171 168 178 184 185 185 185 187 187 181 178 185 191 193 195 196 190 180 173 171 168
170 187 200 201 197 185 196 203 204 204 207 212 221 233 223 198 199 201 196 191 184 189 184 182 188 192 190 188 187 186 185 175 171 175 182 191 192 187 183 173 165 164 161 161
184 200 216 234 220 184 196 200 203 210 212 214 226 231 233 219 208 203 194 187 187 195 194 196 198 195 188 187 187 184 179 173 171 176 184 188 174 159 154 153 148 144 144 148
190 194 202 231 225 205 205 204 208 214 218 226 234 240 232 221 216 210 200 191 198 209 208 203 201 196 194 191 188 182 180 174 172 178 180 164 152 146 144 139 135 135 135 135
186 175 187 220 215 197 217 205 206 214 220 221 230 236 223 215 217 215 209 203 205 208 207 203 202 201 197 192 184 183 178 164 168 172 163 156 152 149 146 140 138 142 143 137
188 183 191 182 180 219 230 202 206 217 224 223 232 237 224 224 225 222 209 204 209 207 206 206 200 193 188 178 173 165 156 157 163 166 162 157 154 151 145 143 146 143 139 143
201 188 194 194 211 239 252 198 199 209 228 222 230 236 231 225 241 246 220 206 209 207 203 199 189 178 164 163 158 148 152 155 164 173 169 163 157 153 151 151 148 140 136 134
201 194 199 203 210 223 231 197 184 193 244 225 221 228 222 195 227 241 208 202 203 197 191 176 152 139 147 155 145 149 162 167 179 176 165 156 154 154 156 150 140 131 130 129
187 194 206 215 227 245 236 173 152 188 232 215 210 218 206 206 224 230 172 181 180 172 160 141 131 133 148 143 142 154 163 181 169 144 141 142 145 147 143 136 132 131 128 126
187 191 201 206 222 237 212 165 182 209 211 183 199 208 207 216 220 204 173 169 159 147 135 129 127 123 116 133 144 152 164 149 129 131 133 133 133 133 134 134 131 133 136 135
197 193 186 202 222 226 186 194 205 190 195 200 198 208 203 207 208 193 172 159 148 141 134 126 128 117 98 105 133 144 139 129 130 129 131 130 128 126 133 139 142 142 143 143
221 191 185 216 235 225 226 225 216 208 200 193 187 190 180 184 182 168 151 144 139 132 129 124 123 121 112 97 96 111 121 126 128 130 130 131 133 131 130 132 141 148 154 153
204 183 200 224 232 220 234 220 209 200 162 138 123 154 170 159 160 155 146 144 140 127 117 117 123 122 115 105 94 93 110 122 125 126 127 129 131 134 131 122 126 136 142 162
210 196 199 217 208 200 221 215 197 186 195 183 160 140 122 146 148 137 133 129 126 122 116 113 110 110 109 104 93 82 96 119 127 128 130 131 131 130 128 124 106 98 103 109